Terminal Aerodrome Forecast
Issued by NWS St Louis, MO

Home | Current Version | Previous Version | Text Only | Print | Product List | Glossary On
Versions: 1 2 3 4 5 6 7 8 9 10 11 12 13 14 15 16 17 18 19 20
000
FTUS43 KLSX 211400 AAA
TAFSTL
TAF AMD
KSTL 211454Z 2115/2218 VRB04KT P6SM SKC
     FM211700 17008KT P6SM FEW045
     FM220100 15005KT P6SM SCT250
     FM221300 20009KT P6SM SCT100 BKN250=

USA.gov is the U.S. government's official web portal to all federal, state and local government web resources and services.